Weather Roundup
Issued by NWS Springfield, MO

Home | Current Version | Previous Version | Text Only | Print | Product List | Glossary On
Versions: 1 2 3 4 5 6 7 8 9 10 11 12 13 14 15 16 17 18 19 20 21 22 23 24 25 26 27 28 29 30 31 32 33 34 35 36 37 38 39 40 41 42 43 44 45 46 47 48 49 50
000
NZUS99 KSGF 250507
HRRSGF

HOURLY WEATHER
NATIONAL WEATHER SERVICE SPRINGFIELD MO
1200 AM CDT MON MAY 25 2020

......SGF CWA......

CITY           SKY/WX    TMP DP  RH WIND       PRES   REMARKS
SPRINGFIELD    FAIR      67  64  90 SE9       29.85F
JOPLIN         FAIR      69  65  86 SE8       29.81F
WEST PLAINS    FAIR      66  63  90 E7        29.92F
ROLLA          FAIR      64  62  93 SE8       29.91F
OSAGE BEACH    FAIR      63  62  97 E5        29.88F
BRANSON        FAIR      66  66 100 E9        29.87F

......SURROUNDING SGF CWA......

CITY           SKY/WX    TMP DP  RH WIND       PRES   REMARKS
CHANUTE        MOCLDY    73  68  84 SE9       29.80R
PARSONS        MOCLDY    73  68  84 S8        29.81R
COFFEYVILLE    FAIR      73  66  78 S8        29.79R
EMPORIA        CLOUDY    72  70  93 SE10      29.78R
GROVE OK       FAIR      70  64  83 SE3       29.82S
ROGERS AR      FAIR      68  63  84 SE7       29.85F
SILOAM SPRINGS FAIR      68  60  75 VRB3      29.82F
HARRISON AR    MOCLDY    71  67  87 SE6       29.87F
NEAR YELLVILLE FAIR      69  67  93 NE5       29.87F

......KANSAS AND MISSOURI......

CITY           SKY/WX    TMP DP  RH WIND       PRES   REMARKS
KANSAS CTY INT MOCLDY    68  64  87 SE5       29.80F
DOWNTOWN KC    FAIR      73  63  70 E6        29.79F
COLUMBIA       FAIR      67  64  90 SE9       29.87F
SEDALIA        FAIR      68  63  84 SE9       29.84F
ST JOSEPH      FAIR      64  62  93 CALM      29.80F
ST LOUIS       LGT RAIN  68  63  84 SE14      29.90F
SPIRIT OF STL  FAIR      66  63  90 S6        29.89F
KIRKSVILLE     FAIR      67  64  90 SE21      29.84F
WICHITA        MOCLDY    75  68  78 S22G29    29.77R
TOPEKA         MOCLDY    69  63  81 E7        29.78S
OLATHE         FAIR      73  66  78 SE5       29.81F

......TENNESSEE......

CITY           SKY/WX    TMP DP  RH WIND       PRES   REMARKS
MEMPHIS        FAIR      78  69  73 SE8       29.92F
NASHVILLE      FAIR      72  62  71 NE3       30.02F

......ARKANSAS.......

CITY           SKY/WX    TMP DP  RH WIND       PRES   REMARKS
FAYETTEVILLE   FAIR      69  60  73 CALM      29.81F
FT SMITH       FAIR      71  60  68 SE7       29.78F
LITTLE ROCK    MOCLDY    72  66  81 SE8       29.87F

......OKLAHOMA.......

CITY           SKY/WX    TMP DP  RH WIND       PRES   REMARKS
TULSA          CLOUDY    73  61  65 W5        29.79R
PONCA CITY     FAIR      73  63  70 S6        29.82R
MCALESTER      FAIR      69  59  70 SE5       29.82R
OKLAHOMA CITY  CLOUDY    64  59  83 S9        29.86R

......IOWA............

CITY           SKY/WX    TMP DP  RH WIND       PRES   REMARKS
DES MOINES     LGT RAIN  65  64  97 S8        29.81F
QUAD CITIES    FAIR      71  66  84 SE3       29.83R

......ILLINOIS........

CITY           SKY/WX    TMP DP  RH WIND       PRES   REMARKS
QUINCY         FAIR      68  63  84 SW14      29.86R
CHICAGO        MOCLDY    76  64  66 S7        29.89F




USA.gov is the U.S. government's official web portal to all federal, state and local government web resources and services.